Regional Weather Roundup
Issued by NWS

Home | Current Version | Previous Version | Text Only | Print | Product List | Glossary On
Versions: 1 2 3 4 5 6 7 8 9 10 11 12 13 14 15 16 17 18 19 20 21 22 23 24 25 26 27 28 29 30 31 32 33 34 35 36 37 38 39 40 41 42 43 44 45 46 47 48 49 50
000
ASUS46 KSTO 290615
RWRCA

NORTHERN AND CENTRAL CA REGIONAL WEATHER ROUNDUP
NATIONAL WEATHER SERVICE SACRAMENTO CA
1100 PM PDT THU JUL 28 2016

NOTE: FAIR INDICATES FEW OR NO CLOUDS BELOW 12,000 FEET WITH NO
SIGNIFICANT WEATHER AND/OR OBSTRUCTIONS TO VISIBILITY.

CAZ001-003-290700-
NORTHWEST AREA

CITY           SKY/WX    TMP DP  RH WIND       PRES   REMARKS
CRESCENT CITY  CLEAR     58  54  86 E3        29.89R
UKIAH          CLEAR     75  54  47 CALM      29.84R
$$

CAZ006-505>513-290700-
BAY AREA

CITY           SKY/WX    TMP DP  RH WIND       PRES   REMARKS
SANTA ROSA     CLEAR     54  50  86 SE6       29.86R
SAN RAFAEL     N/A       80  MM  MM MISG
NAPA           CLEAR     60  56  86 SW9       29.86R
CONCORD        CLEAR     72  50  45 NW5       29.83R
OAKLAND CITY   N/A       66  MM  MM MISG
OAKLAND        PTCLDY    58  54  86 NW9       29.88S
SAN FRAN CITY  N/A       54  MM  96 MISG
SAN FRAN ARPT  PTCLDY    56  51  84 W16       29.88S
LIVERMORE      CLEAR     76  47  35 W8        29.84R
HAYWARD        CLEAR     60  51  72 NW6       29.88R
REDWOOD CITY   N/A       64  MM  75 MISG
MOFFETT ARPT   CLEAR     64  57  78 W3        29.88S
SAN JOSE ARPT  MOCLDY    66  57  72 NW8       29.87S
$$
CAZ034-037-514>518-290700-
CENTRAL COAST

CITY           SKY/WX    TMP DP  RH WIND       PRES   REMARKS
WATSONVILLE    CLOUDY    54  53  97 CALM      29.90S FOG
SALINAS        CLOUDY    56  53  90 W8        29.89S FOG
MONTEREY       CLOUDY    55  53  93 NW5       29.91S FOG
SAN LUIS OBISP CLEAR     58  54  86 NW6       29.88F
SANTA MARIA    CLOUDY    56  56 100 NW3       29.89S FOG
$$
CAZ015-016-290700-
NORTHERN SACRAMENTO VALLEY

CITY           SKY/WX    TMP DP  RH WIND       PRES   REMARKS
REDDING        CLEAR     88  54  31 CALM      29.79R
RED BLUFF      CLEAR     86  64  47 SE3       29.79R
OROVILLE         N/A     88  52  29 E6        29.79S
$$
CAZ016>018-290700-
SOUTHERN SACRAMENTO VALLEY

CITY           SKY/WX    TMP DP  RH WIND       PRES   REMARKS
BEALE AFB      CLEAR     84  51  31 SE7       29.76S
LINCOLN        FAIR      86  45  23 SE7       29.78S
MARYSVILLE     CLEAR     84  55  36 SE10      29.77S
SAC INTL ARPT  CLEAR     77  52  41 S9        29.76S
MATHER AIRPORT PTCLDY    75  52  43 SE7       29.80R
DOWNTOWN SAC   N/A       78  MM  MM MISG
SAC EXEC ARPT  CLEAR     74  51  44 VRB5      29.78S
VACAVILLE      CLEAR     79  49  34 SW10      29.78S
TRAVIS AFB     CLEAR     67  52  59 SW24      29.76S
$$
CAZ019>021-290700-
SAN JOAQUIN VALLEY

CITY           SKY/WX    TMP DP  RH WIND       PRES   REMARKS
STOCKTON       CLEAR     77  53  43 N5        29.79S
MODESTO        CLEAR     87  47  24 NW9       29.78S
MERCED         CLEAR     81  61  50 CALM      29.78S
LEMOORE        PTCLDY    84  50  30 NW8       29.79R
FRESNO         PTCLDY    89  47  23 W8        29.79R
HANFORD        CLEAR     89  52  28 NW7       29.79S
PORTERVILLE    CLEAR     86  58  38 CALM      29.81S
BAKERSFIELD    CLEAR     91  40  16 N7        29.80R
$$
CAZ011-012-071-290700-
NORTHERN MOUNTAINS

CITY           SKY/WX    TMP DP  RH WIND       PRES   REMARKS
YREKA          CLEAR     79  52  38 N12       29.99R
MOUNT SHASTA   CLEAR     72  48  42 CALM      30.05R
ALTURAS        CLEAR     76  38  25 E6        30.10R
$$
CAZ011-012-071-290700-
SIERRA NEVADA MTNS

CITY           SKY/WX    TMP DP  RH WIND       PRES   REMARKS
BLUE CANYON    CLEAR     77  44  30 NE5       30.21S
TRUCKEE        CLEAR     64  46  52 CALM      30.26S
TAHOE VLY ARPT PTCLDY    65  45  48 CALM      30.27S
MAMMOTH LAKES    N/A     63  48  57 N6        30.36F
$$




USA.gov is the U.S. government's official web portal to all federal, state and local government web resources and services.